Gadsden, AL

7:31 PM CST on December 13, 2019 (GMT -0600)
Gadsden Municipal

Weather History for KGAD - June, 2019

Change the Weather History Date:

Thursday, June 6, 2019

  Actual Average Record
Temperature  
Mean Temperature 72 °F -  
Max Temperature 75 °F 81 °F 99 °F (1936)
Min Temperature 69 °F 61 °F 46 °F (1946)
Cooling Degree Days 7    
Growing Degree Days 22 (Base 50)    
Moisture  
Dew Point 72 °F    
Average Humidity 99    
Maximum Humidity 100    
Minimum Humidity 94    
Precipitation  
Precipitation 0.18 in - - ()
Sea Level Pressure  
Sea Level Pressure 29.91 in    
Wind  
Wind Speed 2 mph ()    
Max Wind Speed 10 mph    
Max Gust Speed 17 mph    
Visibility 9.4 miles    
Events Rain    
Averages and records for this station are not official NWS values.
T = Trace of Precipitation, MM = Missing Value Source: Averaged Metar Reports

Daily Weather History Graph

Daily Weather History Graph

Search for Another Location

Airport or City:

Astronomy

Jun. 06, 2019 Rise Set
Actual Time 5:33 AM CDT 7:53 PM CDT
Civil Twilight 5:04 AM CDT 8:22 PM CDT
Nautical Twilight 4:28 AM CDT 8:57 PM CDT
Astronomical Twilight 3:50 AM CDT 9:36 PM CDT
Moon 8:40 AM CDT (6/6) 11:12 PM CDT (6/6)
Length of Visible Light 15h 17m
Length of Day
14h 19m
Waxing Crescent, 14% of the Moon is Illuminated
Jun 6
Waxing Crescent
Jun 10
First Quarter
Jun 17
Full
Jun 25
Last Quarter
Jul 2
New

Hourly Weather History & Observations

Time (CDT) Temp. Dew Point Humidity Pressure Visibility Wind Dir Wind Speed Gust Speed Precip Events Conditions
12:56 AM 72.0 °F 72.0 °F 100% 29.94 in 10.0 mi Calm Calm - 0.00 in Rain Light Rain
1:56 AM 71.1 °F 71.1 °F 100% 29.94 in 10.0 mi Calm Calm - 0.01 in Rain Light Rain
2:56 AM 71.1 °F 71.1 °F 100% 29.93 in 10.0 mi Calm Calm - 0.00 in Rain Light Rain
3:34 AM 69.8 °F - N/A% 29.94 in 9.0 mi Calm Calm - 0.03 in Rain Light Rain
3:56 AM 70.0 °F - N/A% 29.93 in 8.0 mi Calm Calm - 0.05 in Rain Light Rain
4:56 AM 70.0 °F - N/A% 29.93 in 7.0 mi Calm Calm - 0.03 in Rain Light Rain
5:24 AM 69.8 °F - N/A% 29.93 in 6.0 mi Calm Calm - 0.01 in Rain Light Rain
5:56 AM 70.0 °F - N/A% 29.94 in 9.0 mi SW 4.6 mph - 0.02 in   Mostly Cloudy
6:56 AM 70.0 °F - N/A% 29.94 in 10.0 mi SW 3.5 mph - 0.00 in Rain Light Rain
7:56 AM 70.0 °F - N/A% 29.95 in 10.0 mi SW 4.6 mph - N/A   Overcast
8:56 AM 71.1 °F 71.1 °F 100% 29.95 in 10.0 mi SW 3.5 mph - N/A   Overcast
9:56 AM 72.0 °F 72.0 °F 100% 29.96 in 10.0 mi SSW 10.4 mph 17.3 mph 0.00 in Rain Light Rain
10:43 AM 71.6 °F 69.8 °F 94% 29.95 in 8.0 mi Calm Calm - 0.02 in Rain Light Rain
10:56 AM 71.1 °F 71.1 °F 100% 29.95 in 10.0 mi Calm Calm - 0.02 in Rain Light Rain
11:12 AM 71.6 °F 71.6 °F 100% 29.94 in 10.0 mi Calm Calm - 0.01 in Rain Light Rain
11:19 AM 71.6 °F 71.6 °F 100% 29.94 in 10.0 mi Calm Calm - 0.01 in   Scattered Clouds
11:38 AM 71.6 °F 71.6 °F 100% 29.94 in 10.0 mi SSW 3.5 mph - 0.01 in   Mostly Cloudy
11:56 AM 72.0 °F 72.0 °F 100% 29.94 in 10.0 mi Calm Calm - 0.01 in   Overcast
12:06 PM 73.4 °F 73.4 °F 100% 29.94 in 9.0 mi SW 3.5 mph - 0.00 in Rain Light Rain
12:24 PM 71.6 °F 71.6 °F 100% 29.94 in 10.0 mi Calm Calm - 0.00 in Rain Light Rain
12:39 PM 73.4 °F 73.4 °F 100% 29.93 in 10.0 mi Calm Calm - 0.00 in Rain Light Rain
12:45 PM 73.4 °F 73.4 °F 100% 29.94 in 10.0 mi South 4.6 mph - 0.00 in Rain Light Rain
12:56 PM 73.0 °F 73.0 °F 100% 29.94 in 10.0 mi South 3.5 mph - 0.00 in Rain Light Rain
1:11 PM 73.4 °F 73.4 °F 100% 29.93 in 10.0 mi SSE 3.5 mph - 0.00 in   Overcast
1:20 PM 73.4 °F 73.4 °F 100% 29.93 in 10.0 mi SSE 5.8 mph - 0.00 in Rain Light Rain
1:39 PM 73.4 °F 73.4 °F 100% 29.92 in 10.0 mi South 5.8 mph - 0.00 in Rain Light Rain
1:56 PM 73.9 °F 73.9 °F 100% 29.92 in 10.0 mi Variable 4.6 mph - 0.00 in Rain Light Rain
2:13 PM 73.4 °F 73.4 °F 100% 29.91 in 10.0 mi SSE 5.8 mph - 0.01 in Rain Light Rain
2:28 PM 75.2 °F 73.4 °F 94% 29.91 in 10.0 mi SSE 6.9 mph - 0.01 in Rain Light Rain
2:56 PM 75.0 °F 73.9 °F 96% 29.91 in 10.0 mi SSE 8.1 mph - 0.01 in   Overcast
3:31 PM 73.4 °F 73.4 °F 100% 29.90 in 9.0 mi SSE 3.5 mph - 0.01 in Rain Light Rain
3:56 PM 72.0 °F 72.0 °F 100% 29.89 in 7.0 mi SE 4.6 mph - 0.01 in Rain Light Rain
4:30 PM 71.6 °F - N/A% 29.88 in 4.0 mi SE 3.5 mph - 0.01 in Rain Light Rain
4:56 PM 72.0 °F - N/A% 29.88 in 5.0 mi ESE 4.6 mph - 0.02 in Rain Light Rain
5:03 PM 71.6 °F - N/A% 29.87 in 10.0 mi East 4.6 mph - 0.00 in Rain Light Rain
5:15 PM 73.4 °F - N/A% 29.87 in 10.0 mi East 5.8 mph - 0.00 in   Mostly Cloudy
5:28 PM 71.6 °F - N/A% 29.86 in 10.0 mi ENE 4.6 mph - 0.00 in   Mostly Cloudy
5:56 PM 72.0 °F - N/A% 29.86 in 10.0 mi ENE 3.5 mph - 0.00 in   Overcast
6:56 PM 73.0 °F - N/A% 29.84 in 10.0 mi East 4.6 mph - N/A   Overcast
7:56 PM 72.0 °F - N/A% 29.83 in 10.0 mi ENE 3.5 mph - N/A   Overcast
8:06 PM 71.6 °F - N/A% 29.83 in 10.0 mi East 5.8 mph - N/A   Mostly Cloudy
8:15 PM 71.6 °F - N/A% 29.83 in 10.0 mi ENE 4.6 mph - N/A   Partly Cloudy
8:56 PM 72.0 °F - N/A% 29.82 in 10.0 mi East 3.5 mph - N/A   Mostly Cloudy
9:07 PM 71.6 °F - N/A% 29.83 in 10.0 mi East 3.5 mph - N/A   Mostly Cloudy
9:56 PM 72.0 °F - N/A% 29.84 in 10.0 mi East 5.8 mph - N/A   Overcast
11:56 PM 72.0 °F - N/A% 29.81 in 10.0 mi ENE 5.8 mph - 0.00 in   Overcast